Location: *
(46.3500°N, 10.9000°E)
Time: 06:11:29
(UTC+00:00)

A-11 Canister half - Visible Passes

Search period start: 20 April 2021 00:00
Search period end: 30 April 2021 00:00
Orbit: 1515 x 1685 km, 47.2° (Epoch: 19 April)

Date Brightness Start Highest point End Pass type
(mag) Time Alt. Az. Time Alt. Az. Time Alt. Az.
20 Apr 8.9 00:40:33 10° WNW 00:50:18 84° SSW 01:00:23 10° ESE visible
20 Apr 9.3 02:45:37 10° WNW 02:54:43 44° SW 03:04:02 10° SSE visible
20 Apr 9.0 20:08:14 10° SW 20:17:21 59° SSE 20:26:48 10° ENE visible
20 Apr 8.9 22:12:33 10° W 22:22:06 87° N 22:32:03 10° E visible
21 Apr 8.9 00:17:38 10° WNW 00:27:21 85° SSW 00:37:25 10° ESE visible
21 Apr 9.3 02:22:40 10° WNW 02:31:50 46° SW 02:41:15 10° SSE visible
21 Apr 9.0 19:45:26 10° SW 19:54:28 57° SSE 20:03:49 10° ENE visible
21 Apr 8.9 21:49:38 10° W 21:59:09 88° NNW 22:09:04 10° E visible
21 Apr 8.9 23:54:43 10° WNW 00:04:24 87° SSW 00:14:27 10° ESE visible
22 Apr 9.2 01:59:44 10° WNW 02:08:57 48° SW 02:18:25 10° SSE visible
22 Apr 9.1 19:22:38 10° SW 19:31:36 54° SE 19:40:52 10° ENE visible
22 Apr 8.9 21:26:43 10° WSW 21:36:12 89° NNW 21:46:06 10° E visible
22 Apr 8.9 23:31:48 10° W 23:41:28 88° SSW 23:51:29 10° ESE visible
23 Apr 9.1 01:36:47 10° WNW 01:46:04 50° SW 01:55:36 10° SE visible
23 Apr 10.2 03:43:46 10° W 03:49:19 17° SW 03:54:56 10° SSW visible
23 Apr 9.1 18:59:52 10° SW 19:08:44 52° SE 19:17:54 10° ENE visible
23 Apr 8.9 21:03:49 10° WSW 21:13:17 90° SSE 21:23:07 10° E visible
23 Apr 8.9 23:08:53 10° W 23:18:31 89° SSW 23:28:30 10° ESE visible
24 Apr 9.1 01:13:51 10° WNW 01:23:10 53° SW 01:32:47 10° SE visible
24 Apr 10.1 03:20:32 10° W 03:26:30 18° SW 03:32:33 10° SSW visible
24 Apr 9.2 18:37:05 10° SW 18:45:53 50° SE 18:54:56 10° ENE visible
24 Apr 8.9 20:40:55 10° WSW 20:50:21 88° SSE 21:00:09 10° E visible
24 Apr 8.9 22:45:58 10° W 22:55:34 89° N 23:05:32 10° ESE visible
25 Apr 9.0 00:50:56 10° WNW 01:00:17 55° SSW 01:09:55 10° SE visible
25 Apr 10.0 02:57:21 10° W 03:03:41 19° SW 03:10:08 10° SSW visible
25 Apr 8.9 20:18:01 10° WSW 20:27:25 87° SSE 20:37:11 10° ENE visible
25 Apr 8.9 22:23:03 10° W 22:32:37 88° N 22:42:34 10° E visible
26 Apr 9.0 00:28:01 10° WNW 00:37:23 57° SSW 00:47:04 10° SE visible
26 Apr 9.9 02:34:12 10° W 02:40:52 21° SW 02:47:39 10° S visible
26 Apr 9.0 19:55:07 10° WSW 20:04:29 85° SSE 20:14:13 10° ENE visible
26 Apr 8.9 22:00:08 10° W 22:09:41 88° N 22:19:35 10° E visible
27 Apr 9.0 00:05:06 10° WNW 00:14:29 60° SSW 00:24:12 10° SE visible
27 Apr 9.9 02:11:06 10° W 02:20:21 21° SSW 02:25:08 10° S visible
27 Apr 9.0 19:32:14 10° WSW 19:41:34 84° SSE 19:51:15 10° ENE visible
27 Apr 9.0 21:37:13 10° W 21:46:44 87° N 21:56:17 11° E visible
27 Apr 8.9 23:42:11 10° WNW 23:51:35 62° SSW 23:54:19 48° SSE visible
28 Apr 10.1 01:48:01 10° W 02:03:53 - S 01:52:21 21° WSW visible
28 Apr 9.0 19:09:20 10° WSW 19:18:39 82° SSE 19:28:18 10° ENE visible
28 Apr 9.0 21:14:18 10° W 21:23:47 86° N 21:33:02 12° E visible
28 Apr 8.9 23:19:16 10° WNW 23:28:41 64° SSW 23:31:08 51° SSE visible
29 Apr 10.1 01:24:57 10° W 01:29:13 22° WSW 01:29:13 22° WSW visible
29 Apr 9.0 18:46:28 10° WSW 18:55:45 80° SSE 19:05:20 10° ENE visible
29 Apr 9.0 20:51:23 10° W 21:00:51 86° N 21:10:18 11° E visible
29 Apr 8.9 22:56:21 10° WNW 23:05:47 66° SSW 23:08:25 50° SSE visible
